Weather in Golina

Poland     52°14′43″N   18°05′41″E
temp.,
°C
wind,
m/s
gust,
m/s
humid.,
%
clouds,
%
prec.,
mm/h
press.,
hPa
HPBL,
m
1 august, sun
sun123:00+18w345724 0.0 100858
02:00+16wsw366382 0.0 100892
05:00+15w3369100 0.0 100857
08:00+18w2262100 0.0 1008208
11:00+21w2254100 0.0 1008821
14:00+16s1191100 3.8 1008159
17:00+16ssw1192100 0.8 1008109
20:00+15w3592100 0.9 1007213
2 august, mon
mon223:00+15wsw3594100 0.0 1008141
02:00+15w479284 0.1 1007210
05:00+14w3792100 0.0 1007159
08:00+17w4783100 0.0 1008344
11:00+20w7963100 0.3 10091317
14:00+22w795066 0.6 10101918
17:00+20w6953100 0.0 10111236
20:00+17wsw49608 0.0 1011230
3 august, tue
tue323:00+17w4758100 0.0 1012231
02:00+15w48625 0.0 1014167
05:00+12wsw37735 0.0 1014140
08:00+16w47683 0.0 1015405
11:00+20w57500 0.0 10151650
14:00+23w57398 0.0 10142335
17:00+22sw3550100 0.0 1014502
20:00+19se115799 0.1 101311
4 august, wed
wed423:00+16ssw3577100 0.4 101483
02:00+15s2593100 2.6 1014217
05:00+14ssw35948 0.1 1013100
08:00+17sw34785 0.1 1014314
11:00+21sw455411 0.0 10141164
14:00+23sw5645100 0.0 10132013
17:00+23wsw564598 0.0 10131931
20:00+19sw376199 0.0 1013203
5 august, thu
thu523:00+17wsw336791 0.0 101346
02:00+15w2280100 0.0 101317
05:00+15w3382100 0.0 101265
08:00+15w2494100 1.8 1012178
11:00+15wsw2292100 1.5 1012235
14:00+16sw1286100 1.8 1011357
17:00+16ssw2485100 0.0 1011362
20:00+15sw23915 0.0 1009103